STARLINK-30509, 57977

Orbit data source: Space-Track

STARLINK-30509, 57977 is a payload satellite owned by SpaceX/Seattle (US) in LEO that was launched on Sat, 30 Sep 2023 UTC via an FALCON 9 launch vehicle from the Air Force Eastern Test Range (AFETR). Payload-class satellites include a variety of spacecraft equipped with specific instruments for various scientific and technological missions. These include communications satellites like Starlink; space stations such as the ISS; scientific satellites like the Hubble; Earth observation satellites from companies like Planet Labs, Umbra, and HawkEye 360; GPS; miniature CubeSats for education and research; and military/defense satellites.

Loading next visibility...
Identifier
57977, 2023-151P
Orbit
LEO
Country
Flag of USUS
Related business
Manufacturer
SpaceX/Seattle
Mission
Operational Commercial Communications
Bus & Motor
STARLINK V2M, Unknown motor
Mass
730 kg wet, ~700 kg dry
Launch date (UTC)
2023-09-30 (3 years ago)
Launch vehicle
FALCON 9
Launch site
Air Force Eastern Test Range (AFETR)
Object type
Payload
Rocket body
Debris
Shape & HBR
Box + 2 Pan, 17.7 m
Radar Cross Section
33.884 m², Large (>1 m²)

Expand to show TLE details & history
Last TLE update: 11 hours ago

TLE from 11 hours ago
0 STARLINK-30509
1 57977U 23151P   26130.02271105 -.00002805  00000-0 -92430-4 0  9996
2 57977  43.0044   4.2948 0001560 266.6507  93.4166 15.27576324144979
Epoch: 2026-05-10T00:32Z
TLE epoch observation values (Epoch: 2026-05-10T00:32:42.234Z)
Latitude
-0.00005°
Longitude
128.28702°
Altitude
482.9 km
Speed
7.626 km/s
True Right ascension
00h 17m 10s
True Declination
0° 00' 00"
Sunlit
Object was in daylight at epoch
Visualization orbit readout
Latitude
Unknown
Longitude
Unknown
Altitude
Unknown
Speed
Unknown
Apparent Right ascension
Unknown
Apparent Declination
Unknown
Sunlit
N/A
Visualization observer readout
Local Sidereal Time
19:51:39
Azimuth
Unknown
Elevation
Unknown
Doppler factor
Unknown
Orbital elements
Apogee altitude
486.075 km
Perigee altitude
483.934 km
Semi-major axis
6,863.142 km
Eccentricity
0.00016
Inclination
43.0044°
RAAN
4.2948°
Arg. of periapsis
266.6507°
True anomaly
93.43444°
Mean anomaly
93.4166°
Eccentric anomaly
93.42552°
Mean motion
3.81732 °/min
Orbital period
94.31 mins
BSTAR
-0.00009243
Loading maneuver chart data...
Computing Atmospheric mass density...
Loading historical data...
Loading historical data...
Loading historical data...
Loading historical data...
Loading historical data...
Loading historical data...
Loading historical data...

Documentation

Showing up to 5 results
|